SWA1528 KMKE-KLAS

Flight info

Callsign SWA1528
Flight time 3h 30m
Altitude 36000
Route GREAS JAYEX JORDY KP69E DRABS MCK QUAIL DEANN TYEGR CHOWW4
Aircraft B737/M-SADE2E3GIJ4RWZ/LB1D1

Departure

Time 2026-04-10 11:59
Airport General Mitchell International Airport (KMKE)

Arrival

Time 2026-04-10 15:30
Airport Harry Reid International Airport (KLAS)
Time Latitude Longitude Altitude Speed Heading
2026-04-10 11:46 42.95124 -87.90068 687 ft 0 kts 195°
2026-04-10 11:46 42.95141 -87.90062 679 ft 4 kts 189°
2026-04-10 11:46 42.95168 -87.90057 679 ft 3 kts 190°
2026-04-10 11:47 42.95193 -87.90055 684 ft 4 kts 161°
2026-04-10 11:47 42.95213 -87.90074 682 ft 4 kts 118°
2026-04-10 11:47 42.95218 -87.90088 681 ft 1 kts 114°
2026-04-10 11:50 42.95211 -87.90067 683 ft 7 kts 115°
2026-04-10 11:50 42.95111 -87.89902 685 ft 21 kts 132°
2026-04-10 11:51 42.94995 -87.89783 681 ft 21 kts 148°
2026-04-10 11:51 42.94869 -87.89707 683 ft 20 kts 185°
2026-04-10 11:51 42.94732 -87.89729 684 ft 19 kts 187°
2026-04-10 11:51 42.94604 -87.89770 685 ft 19 kts 216°
2026-04-10 11:52 42.94538 -87.89919 685 ft 18 kts 249°
2026-04-10 11:52 42.94428 -87.89955 685 ft 18 kts 170°
2026-04-10 11:52 42.94310 -87.89925 685 ft 17 kts 173°
2026-04-10 11:52 42.94221 -87.89905 683 ft 12 kts 172°
2026-04-10 11:53 42.94152 -87.89888 684 ft 10 kts 169°
2026-04-10 11:53 42.94085 -87.89884 684 ft 10 kts 186°
2026-04-10 11:53 42.94019 -87.89884 680 ft 9 kts 180°
2026-04-10 11:53 42.93952 -87.89886 685 ft 11 kts 183°
2026-04-10 11:54 42.93852 -87.89889 684 ft 17 kts 179°
2026-04-10 11:54 42.93727 -87.89886 683 ft 18 kts 177°
2026-04-10 11:54 42.93604 -87.89892 683 ft 17 kts 183°
2026-04-10 11:54 42.93486 -87.89896 685 ft 17 kts 182°
2026-04-10 11:55 42.93421 -87.89901 684 ft 4 kts 182°
2026-04-10 11:55 42.93391 -87.89902 683 ft 4 kts 184°
2026-04-10 11:55 42.93362 -87.89904 684 ft 4 kts 182°
2026-04-10 11:55 42.93334 -87.89908 685 ft 4 kts 187°
2026-04-10 11:56 42.93300 -87.89913 686 ft 6 kts 187°
2026-04-10 11:56 42.93243 -87.89924 687 ft 9 kts 191°
2026-04-10 11:56 42.93182 -87.89934 687 ft 9 kts 185°
2026-04-10 11:56 42.93123 -87.89943 683 ft 9 kts 188°
2026-04-10 11:57 42.93075 -87.89915 686 ft 8 kts 108°
2026-04-10 11:57 42.93068 -87.89836 687 ft 8 kts 97°
2026-04-10 11:57 42.93078 -87.89764 679 ft 8 kts 41°
2026-04-10 11:57 42.93095 -87.89757 683 ft 0 kts
2026-04-10 11:58 42.93207 -87.89738 685 ft 48 kts
2026-04-10 11:58 42.93805 -87.89641 685 ft 122 kts
2026-04-10 11:59 42.94845 -87.89470 856 ft 169 kts
2026-04-10 11:59 42.96060 -87.89315 1691 ft 181 kts
2026-04-10 11:59 42.97372 -87.89389 2337 ft 201 kts 347°
2026-04-10 11:59 42.98613 -87.90317 3074 ft 205 kts 317°
2026-04-10 12:00 42.99397 -87.91944 3792 ft 213 kts 286°
2026-04-10 12:00 42.99461 -87.93982 4484 ft 219 kts 264°
2026-04-10 12:00 42.99255 -87.96129 4947 ft 239 kts 262°
2026-04-10 12:00 42.99007 -87.98474 5471 ft 253 kts 262°
2026-04-10 12:01 42.98850 -88.00039 6243 ft 248 kts 263°
2026-04-10 12:01 42.98629 -88.02364 7314 ft 247 kts 263°
2026-04-10 12:01 42.98415 -88.04696 8233 ft 249 kts 264°
2026-04-10 12:01 42.98203 -88.07065 9153 ft 253 kts 264°
2026-04-10 12:02 42.97993 -88.09454 10111 ft 253 kts 264°
2026-04-10 12:02 42.97781 -88.11898 10697 ft 268 kts 264°
2026-04-10 12:02 42.97553 -88.14551 10882 ft 295 kts 264°
2026-04-10 12:02 42.97309 -88.17428 11239 ft 313 kts 264°
2026-04-10 12:03 42.97054 -88.20417 11966 ft 319 kts 264°
2026-04-10 12:03 42.96796 -88.23438 12858 ft 321 kts 264°
2026-04-10 12:03 42.96536 -88.26466 13735 ft 323 kts 264°
2026-04-10 12:03 42.96272 -88.29528 14504 ft 326 kts 264°
2026-04-10 12:04 42.96005 -88.32622 15237 ft 330 kts 264°
2026-04-10 12:04 42.95734 -88.35753 15983 ft 333 kts 264°
2026-04-10 12:04 42.95461 -88.38900 16721 ft 335 kts 264°
2026-04-10 12:04 42.95188 -88.42040 17443 ft 338 kts 263°
2026-04-10 12:05 42.94910 -88.45238 18162 ft 342 kts 263°
2026-04-10 12:05 42.94627 -88.48471 18845 ft 344 kts 264°
2026-04-10 12:05 42.94340 -88.51715 19548 ft 344 kts 264°
2026-04-10 12:05 42.94112 -88.54979 20183 ft 346 kts 268°
2026-04-10 12:06 42.94168 -88.58277 20807 ft 349 kts 272°
2026-04-10 12:06 42.94276 -88.61605 21427 ft 351 kts 272°
2026-04-10 12:06 42.94390 -88.64941 22032 ft 354 kts 272°
2026-04-10 12:06 42.94504 -88.68308 22629 ft 356 kts 272°
2026-04-10 12:07 42.94615 -88.71704 23223 ft 359 kts 272°
2026-04-10 12:07 42.94831 -88.78551 24268 ft 364 kts 272°
2026-04-10 12:07 42.94937 -88.82022 24726 ft 366 kts 272°
2026-04-10 12:08 42.95044 -88.85605 25178 ft 369 kts 272°
2026-04-10 12:08 42.95152 -88.89274 25617 ft 372 kts 272°
2026-04-10 12:08 42.95255 -88.92812 26042 ft 375 kts 272°
2026-04-10 12:08 42.95358 -88.96384 26466 ft 377 kts 272°
2026-04-10 12:09 42.95462 -89.00032 26885 ft 380 kts 272°
2026-04-10 12:09 42.95563 -89.03640 27284 ft 382 kts 272°
2026-04-10 12:09 42.95664 -89.07280 27685 ft 385 kts 272°
2026-04-10 12:09 42.95765 -89.10947 28072 ft 388 kts 272°
2026-04-10 12:10 42.95870 -89.14821 28470 ft 390 kts 271°
2026-04-10 12:10 42.95970 -89.18544 28844 ft 392 kts 271°
2026-04-10 12:10 42.96069 -89.22283 29200 ft 395 kts 271°
2026-04-10 12:10 42.96168 -89.26043 29557 ft 397 kts 272°
2026-04-10 12:11 42.96266 -89.29831 29907 ft 399 kts 271°
2026-04-10 12:11 42.96362 -89.33622 30352 ft 399 kts 271°
2026-04-10 12:11 42.96457 -89.37387 30837 ft 395 kts 271°
2026-04-10 12:11 42.96550 -89.41124 31375 ft 391 kts 271°
2026-04-10 12:12 42.96640 -89.44824 31866 ft 387 kts 270°
2026-04-10 12:12 42.96729 -89.48493 32276 ft 386 kts 270°
2026-04-10 12:12 42.96816 -89.52153 32663 ft 385 kts 270°
2026-04-10 12:12 42.96901 -89.55791 33094 ft 382 kts 270°
2026-04-10 12:13 42.96986 -89.59411 33538 ft 379 kts 269°
2026-04-10 12:13 42.97067 -89.62952 33936 ft 377 kts 269°
2026-04-10 12:13 42.97148 -89.66525 34285 ft 376 kts 269°
2026-04-10 12:13 42.97227 -89.70080 34581 ft 375 kts 269°
2026-04-10 12:14 42.97306 -89.73629 34870 ft 373 kts 269°
2026-04-10 12:14 42.97384 -89.77208 35148 ft 372 kts 269°
2026-04-10 12:14 42.97460 -89.80747 35367 ft 373 kts 269°
2026-04-10 12:14 42.97534 -89.84296 35492 ft 375 kts 269°
2026-04-10 12:15 42.97609 -89.87877 35627 ft 377 kts 269°
2026-04-10 12:15 42.97683 -89.91455 35809 ft 378 kts 269°
2026-04-10 12:15 42.97756 -89.95035 36066 ft 376 kts 270°
2026-04-10 12:15 42.97828 -89.98604 36240 ft 377 kts 270°
2026-04-10 12:16 42.97899 -90.02202 36260 ft 379 kts 270°
2026-04-10 12:16 42.98040 -90.09380 36261 ft 376 kts 270°
2026-04-10 12:17 42.98172 -90.16463 36262 ft 374 kts 270°
2026-04-10 12:17 42.97932 -90.23519 36274 ft 371 kts 261°
2026-04-10 12:18 42.96562 -90.30315 36273 ft 372 kts 252°
2026-04-10 12:18 42.94829 -90.36989 36265 ft 373 kts 252°
2026-04-10 12:19 42.93073 -90.43733 36279 ft 374 kts 252°
2026-04-10 12:19 42.91361 -90.50356 36288 ft 376 kts 252°
2026-04-10 12:20 42.89869 -90.56141 36275 ft 378 kts 252°
2026-04-10 12:20 42.88121 -90.62916 36284 ft 380 kts 252°
2026-04-10 12:21 42.86350 -90.69761 36274 ft 381 kts 252°
2026-04-10 12:21 42.84584 -90.76568 36283 ft 381 kts 252°
2026-04-10 12:22 42.82807 -90.83398 36287 ft 382 kts 252°
2026-04-10 12:22 42.81035 -90.90191 36284 ft 383 kts 252°
2026-04-10 12:23 42.79236 -90.97066 36293 ft 383 kts 252°
2026-04-10 12:23 42.77449 -91.03877 36293 ft 383 kts 252°
2026-04-10 12:24 42.75641 -91.10749 36286 ft 383 kts 252°
2026-04-10 12:24 42.73839 -91.17577 36284 ft 383 kts 252°
2026-04-10 12:25 42.72033 -91.24400 36303 ft 383 kts 252°
2026-04-10 12:25 42.70223 -91.31220 36306 ft 383 kts 252°
2026-04-10 12:26 42.68407 -91.38047 36294 ft 383 kts 252°
2026-04-10 12:26 42.66604 -91.44801 36307 ft 383 kts 252°
2026-04-10 12:27 42.64781 -91.51613 36321 ft 384 kts 252°
2026-04-10 12:27 42.62950 -91.58438 36311 ft 384 kts 252°
2026-04-10 12:28 42.61113 -91.65261 36314 ft 385 kts 251°
2026-04-10 12:28 42.59269 -91.72097 36308 ft 385 kts 251°
2026-04-10 12:29 42.57435 -91.78872 36315 ft 385 kts 251°
2026-04-10 12:29 42.55586 -91.85686 36317 ft 385 kts 251°
2026-04-10 12:30 42.53734 -91.92493 36325 ft 385 kts 251°
2026-04-10 12:30 42.51865 -91.99340 36338 ft 384 kts 251°
2026-04-10 12:31 42.50016 -92.06099 36341 ft 384 kts 251°
2026-04-10 12:31 42.48148 -92.12906 36338 ft 385 kts 251°
2026-04-10 12:32 42.46282 -92.19689 36332 ft 385 kts 251°
2026-04-10 12:32 42.44405 -92.26492 36331 ft 385 kts 251°
2026-04-10 12:33 42.42524 -92.33292 36322 ft 386 kts 251°
2026-04-10 12:33 42.40636 -92.40099 36336 ft 387 kts 251°
2026-04-10 12:34 42.38738 -92.46922 36336 ft 388 kts 251°
2026-04-10 12:34 42.36833 -92.53754 36333 ft 387 kts 251°
2026-04-10 12:35 42.34940 -92.60521 36341 ft 387 kts 251°
2026-04-10 12:35 42.33034 -92.67317 36338 ft 386 kts 251°
2026-04-10 12:36 42.31118 -92.74130 36343 ft 386 kts 251°
2026-04-10 12:36 42.29200 -92.80936 36344 ft 386 kts 251°
2026-04-10 12:37 42.27285 -92.87710 36349 ft 386 kts 251°
2026-04-10 12:37 42.25362 -92.94493 36357 ft 387 kts 251°
2026-04-10 12:38 42.23448 -93.01230 36348 ft 387 kts 251°
2026-04-10 12:38 42.21514 -93.08016 36347 ft 388 kts 251°
2026-04-10 12:39 42.19573 -93.14811 36356 ft 388 kts 250°
2026-04-10 12:39 42.17630 -93.21598 36350 ft 388 kts 250°
2026-04-10 12:40 42.15660 -93.28459 36353 ft 389 kts 250°
2026-04-10 12:40 42.13709 -93.35242 36349 ft 389 kts 250°
2026-04-10 12:41 42.11739 -93.42075 36351 ft 388 kts 250°
2026-04-10 12:41 42.09780 -93.48850 36354 ft 388 kts 250°
2026-04-10 12:42 42.07958 -93.55674 36356 ft 386 kts 254°
2026-04-10 12:42 42.06397 -93.62594 36348 ft 386 kts 254°
2026-04-10 12:43 42.04848 -93.69523 36347 ft 386 kts 254°
2026-04-10 12:43 42.03292 -93.76426 36340 ft 386 kts 254°
2026-04-10 12:44 42.01727 -93.83327 36327 ft 386 kts 254°
2026-04-10 12:44 42.00157 -93.90219 36344 ft 386 kts 254°
2026-04-10 12:45 41.98585 -93.97092 36346 ft 387 kts 254°
2026-04-10 12:45 41.96998 -94.04011 36353 ft 388 kts 254°
2026-04-10 12:46 41.95405 -94.10936 36365 ft 389 kts 254°
2026-04-10 12:46 41.93804 -94.17874 36357 ft 389 kts 254°
2026-04-10 12:47 41.92194 -94.24828 36357 ft 390 kts 254°
2026-04-10 12:47 41.90566 -94.31836 36333 ft 390 kts 254°
2026-04-10 12:48 41.88957 -94.38745 36359 ft 391 kts 254°
2026-04-10 12:48 41.87333 -94.45694 36381 ft 391 kts 254°
2026-04-10 12:49 41.85702 -94.52654 36390 ft 391 kts 254°
2026-04-10 12:49 41.84052 -94.59671 36378 ft 391 kts 254°
2026-04-10 12:50 41.82421 -94.66583 36397 ft 391 kts 254°
2026-04-10 12:50 41.80776 -94.73539 36380 ft 391 kts 254°
2026-04-10 12:51 41.79135 -94.80454 36375 ft 392 kts 254°
2026-04-10 12:51 41.77479 -94.87415 36364 ft 392 kts 253°
2026-04-10 12:52 41.76086 -94.93249 36370 ft 392 kts 253°
2026-04-10 12:52 41.74147 -95.01347 36368 ft 392 kts 254°
2026-04-10 12:53 41.72747 -95.07178 36373 ft 393 kts 254°
2026-04-10 12:53 41.71070 -95.14145 36381 ft 393 kts 254°
2026-04-10 12:54 41.69386 -95.21117 36382 ft 394 kts 253°
2026-04-10 12:54 41.67697 -95.28090 36384 ft 394 kts 253°
2026-04-10 12:55 41.66004 -95.35059 36365 ft 394 kts 254°
2026-04-10 12:55 41.64277 -95.42147 36362 ft 394 kts 253°
2026-04-10 12:56 41.62605 -95.48987 36375 ft 394 kts 253°
2026-04-10 12:56 41.60907 -95.55915 36386 ft 394 kts 253°
2026-04-10 12:57 41.59795 -95.60441 36390 ft 395 kts 253°
2026-04-10 12:57 41.58081 -95.67402 36404 ft 395 kts 253°
2026-04-10 12:58 41.56360 -95.74372 36406 ft 395 kts 253°
2026-04-10 12:58 41.54634 -95.81344 36416 ft 396 kts 253°
2026-04-10 12:59 41.52902 -95.88326 36400 ft 396 kts 253°
2026-04-10 12:59 41.51166 -95.95305 36407 ft 396 kts 253°
2026-04-10 13:00 41.49380 -96.02241 36407 ft 397 kts 251°
2026-04-10 13:00 41.47323 -96.09133 36354 ft 397 kts 250°
2026-04-10 13:01 41.45240 -96.15924 36369 ft 397 kts 250°
2026-04-10 13:01 41.43164 -96.22748 36368 ft 398 kts 250°
2026-04-10 13:02 41.41098 -96.29578 36392 ft 398 kts 250°
2026-04-10 13:02 41.39021 -96.36451 36403 ft 398 kts 250°
2026-04-10 13:03 41.36958 -96.43262 36401 ft 398 kts 250°
2026-04-10 13:03 41.34882 -96.50101 36394 ft 398 kts 250°
2026-04-10 13:04 41.32799 -96.56946 36408 ft 399 kts 250°
2026-04-10 13:04 41.30691 -96.63852 36405 ft 401 kts 250°
2026-04-10 13:05 41.28602 -96.70681 36404 ft 402 kts 250°
2026-04-10 13:05 41.26492 -96.77560 36405 ft 402 kts 250°
2026-04-10 13:06 41.24371 -96.84453 36403 ft 403 kts 250°
2026-04-10 13:06 41.22246 -96.91344 36410 ft 403 kts 250°
2026-04-10 13:07 41.20111 -96.98249 36412 ft 403 kts 250°
2026-04-10 13:07 41.17976 -97.05139 36413 ft 403 kts 250°
2026-04-10 13:08 41.15837 -97.12023 36411 ft 403 kts 250°
2026-04-10 13:08 41.13710 -97.18850 36407 ft 403 kts 250°
2026-04-10 13:09 41.10480 -97.29182 36401 ft 402 kts 250°
2026-04-10 13:09 41.08347 -97.35985 36406 ft 402 kts 250°
2026-04-10 13:10 41.06199 -97.42821 36406 ft 402 kts 250°
2026-04-10 13:10 41.04047 -97.49649 36408 ft 402 kts 250°
2026-04-10 13:11 41.01886 -97.56491 36366 ft 403 kts 250°
2026-04-10 13:11 40.99716 -97.63341 36355 ft 403 kts 250°
2026-04-10 13:12 40.97545 -97.70180 36362 ft 403 kts 250°
2026-04-10 13:12 40.95367 -97.77022 36365 ft 404 kts 250°
2026-04-10 13:13 40.93182 -97.83872 36372 ft 404 kts 250°
2026-04-10 13:13 40.90993 -97.90714 36369 ft 404 kts 250°
2026-04-10 13:14 40.88794 -97.97574 36364 ft 405 kts 250°
2026-04-10 13:14 40.86594 -98.04419 36369 ft 404 kts 249°
2026-04-10 13:15 40.84391 -98.11258 36346 ft 404 kts 249°
2026-04-10 13:15 40.82186 -98.18087 36366 ft 404 kts 249°
2026-04-10 13:16 40.79979 -98.24910 36379 ft 404 kts 249°
2026-04-10 13:16 40.77770 -98.31728 36367 ft 404 kts 249°
2026-04-10 13:17 40.75604 -98.38565 36343 ft 403 kts 253°
2026-04-10 13:17 40.73901 -98.45593 36383 ft 402 kts 254°
2026-04-10 13:18 40.72230 -98.52644 36389 ft 402 kts 254°
2026-04-10 13:18 40.70550 -98.59683 36391 ft 403 kts 254°
2026-04-10 13:19 40.68858 -98.66714 36383 ft 403 kts 254°
2026-04-10 13:19 40.67157 -98.73749 36377 ft 403 kts 254°
2026-04-10 13:20 40.65460 -98.80742 36385 ft 403 kts 254°
2026-04-10 13:20 40.63749 -98.87772 36386 ft 403 kts 253°
2026-04-10 13:21 40.62033 -98.94803 36386 ft 404 kts 253°
2026-04-10 13:21 40.60310 -99.01839 36386 ft 404 kts 253°
2026-04-10 13:22 40.58576 -99.08901 36386 ft 404 kts 253°
2026-04-10 13:22 40.57035 -99.15161 36365 ft 404 kts 253°
2026-04-10 13:23 40.55299 -99.22190 36362 ft 404 kts 253°
2026-04-10 13:23 40.53554 -99.29235 36344 ft 405 kts 253°
2026-04-10 13:24 40.51807 -99.36266 36352 ft 405 kts 253°
2026-04-10 13:24 40.50057 -99.43290 36369 ft 405 kts 253°
2026-04-10 13:25 40.48298 -99.50330 36352 ft 405 kts 253°
2026-04-10 13:25 40.46536 -99.57359 36357 ft 406 kts 253°
2026-04-10 13:26 40.44766 -99.64404 36354 ft 406 kts 253°
2026-04-10 13:26 40.42986 -99.71463 36351 ft 407 kts 253°
2026-04-10 13:27 40.41204 -99.78513 36359 ft 407 kts 253°
2026-04-10 13:27 40.39416 -99.85562 36361 ft 407 kts 253°
2026-04-10 13:28 40.37627 -99.92598 36356 ft 407 kts 253°
2026-04-10 13:28 40.35835 -99.99625 36365 ft 407 kts 253°
2026-04-10 13:29 40.34030 -100.06684 36365 ft 407 kts 253°
2026-04-10 13:29 40.32230 -100.13700 36367 ft 406 kts 253°
2026-04-10 13:30 40.30423 -100.20727 36358 ft 406 kts 253°
2026-04-10 13:30 40.28618 -100.27725 36370 ft 405 kts 253°
2026-04-10 13:31 40.26821 -100.34678 36356 ft 406 kts 253°
2026-04-10 13:31 40.25007 -100.41674 36365 ft 406 kts 252°
2026-04-10 13:32 40.23190 -100.48671 36366 ft 406 kts 252°
2026-04-10 13:32 40.21371 -100.55657 36363 ft 406 kts 252°
2026-04-10 13:33 40.19558 -100.62649 36364 ft 406 kts 253°
2026-04-10 13:33 40.17802 -100.69666 36364 ft 406 kts 253°
2026-04-10 13:34 40.16053 -100.76692 36366 ft 406 kts 253°
2026-04-10 13:34 40.14298 -100.83716 36356 ft 406 kts 253°
2026-04-10 13:35 40.12537 -100.90730 36334 ft 406 kts 253°
2026-04-10 13:35 40.10767 -100.97755 36324 ft 406 kts 253°
2026-04-10 13:36 40.09042 -101.04578 36306 ft 406 kts 253°
2026-04-10 13:36 40.07218 -101.11776 36342 ft 406 kts 253°
2026-04-10 13:37 40.05426 -101.18822 36350 ft 406 kts 253°
2026-04-10 13:37 40.03648 -101.25796 36308 ft 406 kts 253°
2026-04-10 13:38 40.01850 -101.32828 36307 ft 406 kts 253°
2026-04-10 13:38 40.00057 -101.39820 36299 ft 406 kts 253°
2026-04-10 13:39 39.98263 -101.46795 36295 ft 405 kts 253°
2026-04-10 13:39 39.96466 -101.53764 36299 ft 405 kts 252°
2026-04-10 13:40 39.94661 -101.60740 36311 ft 405 kts 252°
2026-04-10 13:40 39.92857 -101.67697 36311 ft 405 kts 252°
2026-04-10 13:41 39.91059 -101.74607 36321 ft 405 kts 252°
2026-04-10 13:41 39.89247 -101.81556 36314 ft 405 kts 252°
2026-04-10 13:42 39.87431 -101.88498 36323 ft 404 kts 252°
2026-04-10 13:42 39.85613 -101.95428 36302 ft 405 kts 252°
2026-04-10 13:43 39.83792 -102.02348 36296 ft 404 kts 252°
2026-04-10 13:43 39.81970 -102.09258 36295 ft 403 kts 252°
2026-04-10 13:44 39.80145 -102.16158 36285 ft 403 kts 252°
2026-04-10 13:44 39.78328 -102.23006 36264 ft 403 kts 252°
2026-04-10 13:45 39.76494 -102.29901 36268 ft 403 kts 252°
2026-04-10 13:45 39.74661 -102.36777 36257 ft 403 kts 252°
2026-04-10 13:46 39.72819 -102.43662 36259 ft 403 kts 252°
2026-04-10 13:46 39.70978 -102.50528 36252 ft 402 kts 252°
2026-04-10 13:47 39.69134 -102.57383 36248 ft 402 kts 252°
2026-04-10 13:47 39.67284 -102.64247 36248 ft 402 kts 252°
2026-04-10 13:48 39.65424 -102.71124 36247 ft 401 kts 252°
2026-04-10 13:48 39.63572 -102.77956 36237 ft 401 kts 252°
2026-04-10 13:49 39.61710 -102.84806 36241 ft 401 kts 252°
2026-04-10 13:49 39.60159 -102.90500 36243 ft 401 kts 252°
2026-04-10 13:50 39.58292 -102.97332 36241 ft 401 kts 252°
2026-04-10 13:50 39.56428 -103.04139 36244 ft 401 kts 252°
2026-04-10 13:51 39.54559 -103.10945 36232 ft 401 kts 252°
2026-04-10 13:51 39.52687 -103.17745 36232 ft 401 kts 252°
2026-04-10 13:52 39.50809 -103.24547 36222 ft 401 kts 251°
2026-04-10 13:52 39.48928 -103.31343 36223 ft 401 kts 251°
2026-04-10 13:53 39.47041 -103.38141 36200 ft 400 kts 251°
2026-04-10 13:53 39.45158 -103.44907 36203 ft 400 kts 251°
2026-04-10 13:54 39.43252 -103.51740 36194 ft 400 kts 251°
2026-04-10 13:54 39.41352 -103.58533 36195 ft 400 kts 251°
2026-04-10 13:55 39.39456 -103.65295 36171 ft 401 kts 251°
2026-04-10 13:55 39.37554 -103.72061 36170 ft 401 kts 251°
2026-04-10 13:56 39.36602 -103.75442 36275 ft 401 kts 251°
2026-04-10 13:56 39.35647 -103.78830 36276 ft 401 kts 251°
2026-04-10 13:56 39.33735 -103.85599 36250 ft 401 kts 251°
2026-04-10 13:57 39.31816 -103.92374 36235 ft 401 kts 251°
2026-04-10 13:57 39.29899 -103.99131 36207 ft 401 kts 251°
2026-04-10 13:58 39.27980 -104.05886 36178 ft 401 kts 251°
2026-04-10 13:58 39.26059 -104.12636 36154 ft 400 kts 252°
2026-04-10 13:59 39.24414 -104.19482 36151 ft 399 kts 254°
2026-04-10 13:59 39.22834 -104.26358 36147 ft 399 kts 253°
2026-04-10 14:00 39.21249 -104.33234 36165 ft 399 kts 253°
2026-04-10 14:00 39.19655 -104.40082 36195 ft 399 kts 253°
2026-04-10 14:01 39.18063 -104.46886 36209 ft 399 kts 253°
2026-04-10 14:01 39.16447 -104.53765 36236 ft 399 kts 253°
2026-04-10 14:02 39.14836 -104.60603 36245 ft 399 kts 253°
2026-04-10 14:02 39.13230 -104.67398 36223 ft 399 kts 253°
2026-04-10 14:03 39.11597 -104.74286 36239 ft 399 kts 253°
2026-04-10 14:03 39.09971 -104.81128 36249 ft 399 kts 253°
2026-04-10 14:04 39.08338 -104.87977 36257 ft 400 kts 253°
2026-04-10 14:05 39.05896 -104.98185 36229 ft 399 kts 253°
2026-04-10 14:05 39.05049 -105.01713 36125 ft 399 kts 252°
2026-04-10 14:05 39.04243 -105.05067 36142 ft 399 kts 252°
2026-04-10 14:06 39.02598 -105.11895 36125 ft 400 kts 252°
2026-04-10 14:06 39.00948 -105.18727 36132 ft 400 kts 252°
2026-04-10 14:07 38.99292 -105.25561 36147 ft 400 kts 252°
2026-04-10 14:07 38.97632 -105.32396 36132 ft 401 kts 252°
2026-04-10 14:08 38.95967 -105.39232 36151 ft 401 kts 252°
2026-04-10 14:08 38.94291 -105.46091 36158 ft 402 kts 252°
2026-04-10 14:09 38.92633 -105.52855 36143 ft 402 kts 252°
2026-04-10 14:09 38.90928 -105.59795 36159 ft 402 kts 252°
2026-04-10 14:10 38.89252 -105.66596 36144 ft 402 kts 252°
2026-04-10 14:10 38.87562 -105.73435 36152 ft 401 kts 252°
2026-04-10 14:11 38.85870 -105.80264 36150 ft 401 kts 252°
2026-04-10 14:11 38.84175 -105.87081 36144 ft 401 kts 252°
2026-04-10 14:12 38.82480 -105.93886 36292 ft 400 kts 252°
2026-04-10 14:12 38.80780 -106.00686 36322 ft 400 kts 251°
2026-04-10 14:13 38.79077 -106.07479 36325 ft 400 kts 251°
2026-04-10 14:13 38.77372 -106.14264 36326 ft 400 kts 251°
2026-04-10 14:14 38.75663 -106.21045 36318 ft 399 kts 251°
2026-04-10 14:14 38.73954 -106.27816 36297 ft 399 kts 251°
2026-04-10 14:15 38.72255 -106.34561 36260 ft 398 kts 251°
2026-04-10 14:15 38.70528 -106.41322 36214 ft 400 kts 251°
2026-04-10 14:16 38.68800 -106.48089 36180 ft 400 kts 251°
2026-04-10 14:16 38.67065 -106.54876 36134 ft 402 kts 251°
2026-04-10 14:17 38.65317 -106.61699 36137 ft 401 kts 251°
2026-04-10 14:17 38.63584 -106.68447 36149 ft 401 kts 251°
2026-04-10 14:18 38.61836 -106.75234 36158 ft 401 kts 251°
2026-04-10 14:18 38.60377 -106.80883 36159 ft 400 kts 251°
2026-04-10 14:19 38.58330 -106.88789 36286 ft 399 kts 251°
2026-04-10 14:19 38.56582 -106.95518 36285 ft 398 kts 251°
2026-04-10 14:20 38.54838 -107.02216 36287 ft 397 kts 250°
2026-04-10 14:20 38.53352 -107.07901 36294 ft 396 kts 250°
2026-04-10 14:21 38.51577 -107.14682 36240 ft 396 kts 250°
2026-04-10 14:21 38.49829 -107.21353 36201 ft 396 kts 250°
2026-04-10 14:22 38.48076 -107.28015 36171 ft 395 kts 250°
2026-04-10 14:22 38.46310 -107.34707 36096 ft 395 kts 250°
2026-04-10 14:23 38.44571 -107.41295 36094 ft 395 kts 249°
2026-04-10 14:23 38.42800 -107.47964 36050 ft 394 kts 249°
2026-04-10 14:24 38.41048 -107.54578 36051 ft 394 kts 249°
2026-04-10 14:24 38.39271 -107.61224 36026 ft 394 kts 249°
2026-04-10 14:25 38.37510 -107.67802 36031 ft 394 kts 249°
2026-04-10 14:25 38.35728 -107.74452 36025 ft 396 kts 249°
2026-04-10 14:26 38.33936 -107.81121 35991 ft 397 kts 249°
2026-04-10 14:26 38.33041 -107.84448 36105 ft 397 kts 249°
2026-04-10 14:26 38.32145 -107.87773 36101 ft 397 kts 249°
2026-04-10 14:27 38.31248 -107.91095 36089 ft 396 kts 249°
2026-04-10 14:27 38.28594 -108.00904 36063 ft 396 kts 249°
2026-04-10 14:28 38.26806 -108.07494 36042 ft 395 kts 249°
2026-04-10 14:28 38.25002 -108.14124 36013 ft 395 kts 249°
2026-04-10 14:29 38.23196 -108.20738 35985 ft 396 kts 248°
2026-04-10 14:29 38.21390 -108.27337 36010 ft 395 kts 248°
2026-04-10 14:30 38.19583 -108.33946 36004 ft 395 kts 248°
2026-04-10 14:30 38.17769 -108.40548 36002 ft 395 kts 248°
2026-04-10 14:31 38.15947 -108.47147 36009 ft 396 kts 248°
2026-04-10 14:31 38.14124 -108.53740 35993 ft 396 kts 248°
2026-04-10 14:32 38.12295 -108.60342 36004 ft 396 kts 248°
2026-04-10 14:32 38.10465 -108.66930 36006 ft 396 kts 248°
2026-04-10 14:33 38.08643 -108.73474 35995 ft 395 kts 248°
2026-04-10 14:33 38.06805 -108.80064 36003 ft 396 kts 248°
2026-04-10 14:34 38.04961 -108.86652 35996 ft 396 kts 247°
2026-04-10 14:34 38.03116 -108.93231 35990 ft 395 kts 247°
2026-04-10 14:35 38.01270 -108.99798 35994 ft 395 kts 247°
2026-04-10 14:35 37.99425 -109.06343 35995 ft 394 kts 247°
2026-04-10 14:36 37.97573 -109.12894 36002 ft 395 kts 247°
2026-04-10 14:36 37.95716 -109.19449 35995 ft 395 kts 247°
2026-04-10 14:37 37.93856 -109.25998 35987 ft 395 kts 247°
2026-04-10 14:37 37.91992 -109.32547 35992 ft 395 kts 247°
2026-04-10 14:38 37.90137 -109.39047 36005 ft 395 kts 247°
2026-04-10 14:38 37.88270 -109.45576 36022 ft 394 kts 247°
2026-04-10 14:39 37.86388 -109.52138 36043 ft 395 kts 247°
2026-04-10 14:39 37.84521 -109.58647 36035 ft 396 kts 247°
2026-04-10 14:40 37.82635 -109.65187 36038 ft 395 kts 247°
2026-04-10 14:40 37.80747 -109.71723 35965 ft 396 kts 247°
2026-04-10 14:41 37.78850 -109.78277 35951 ft 396 kts 248°
2026-04-10 14:41 37.76956 -109.84822 35961 ft 397 kts 247°
2026-04-10 14:42 37.75045 -109.91367 35964 ft 397 kts 247°
2026-04-10 14:42 37.73129 -109.97926 35935 ft 398 kts 247°
2026-04-10 14:43 37.71212 -110.04481 35938 ft 398 kts 247°
2026-04-10 14:43 37.69286 -110.11052 35922 ft 398 kts 247°
2026-04-10 14:44 37.67357 -110.17620 35933 ft 399 kts 247°
2026-04-10 14:44 37.65436 -110.24142 35911 ft 398 kts 247°
2026-04-10 14:45 37.63501 -110.30698 35891 ft 398 kts 247°
2026-04-10 14:45 37.61559 -110.37262 35891 ft 397 kts 246°
2026-04-10 14:46 37.59621 -110.43793 35887 ft 396 kts 247°
2026-04-10 14:46 37.57700 -110.50254 35890 ft 396 kts 246°
2026-04-10 14:47 37.55765 -110.56747 35890 ft 396 kts 246°
2026-04-10 14:47 37.53815 -110.63275 35881 ft 395 kts 246°
2026-04-10 14:48 37.51869 -110.69773 35884 ft 395 kts 246°
2026-04-10 14:48 37.49930 -110.76237 35880 ft 395 kts 246°
2026-04-10 14:49 37.47980 -110.82719 35883 ft 396 kts 246°
2026-04-10 14:49 37.46024 -110.89205 35883 ft 397 kts 246°
2026-04-10 14:50 37.44060 -110.95705 35864 ft 398 kts 246°
2026-04-10 14:50 37.42406 -111.01167 35868 ft 399 kts 246°
2026-04-10 14:51 37.40424 -111.07696 35890 ft 399 kts 246°
2026-04-10 14:51 37.38442 -111.14213 35906 ft 400 kts 246°
2026-04-10 14:52 37.36450 -111.20741 35900 ft 399 kts 246°
2026-04-10 14:52 37.34456 -111.27273 35895 ft 400 kts 246°
2026-04-10 14:53 37.32442 -111.33849 35878 ft 400 kts 246°
2026-04-10 14:53 37.30440 -111.40373 35881 ft 401 kts 246°
2026-04-10 14:54 37.28400 -111.47006 35887 ft 401 kts 246°
2026-04-10 14:54 37.26397 -111.53505 35910 ft 401 kts 246°
2026-04-10 14:55 37.24351 -111.60138 35886 ft 401 kts 246°
2026-04-10 14:55 37.22366 -111.66551 35891 ft 400 kts 246°
2026-04-10 14:56 37.20124 -111.72925 35883 ft 398 kts 237°
2026-04-10 14:56 37.17892 -111.79324 35906 ft 401 kts 249°
2026-04-10 14:57 37.16255 -111.86061 35910 ft 401 kts 249°
2026-04-10 14:57 37.14573 -111.92731 35900 ft 401 kts 249°
2026-04-10 14:58 37.12819 -111.99342 35914 ft 400 kts 248°
2026-04-10 14:58 37.11035 -112.05935 35917 ft 399 kts 248°
2026-04-10 14:59 37.09232 -112.12563 35934 ft 399 kts 248°
2026-04-10 14:59 37.07452 -112.19099 35946 ft 399 kts 247°
2026-04-10 15:00 37.05660 -112.25662 35949 ft 399 kts 247°
2026-04-10 15:00 37.03862 -112.32235 35952 ft 399 kts 247°
2026-04-10 15:01 37.02061 -112.38811 35943 ft 399 kts 247°
2026-04-10 15:01 37.00261 -112.45370 35944 ft 398 kts 247°
2026-04-10 15:02 36.98446 -112.51944 35946 ft 400 kts 246°
2026-04-10 15:02 36.96619 -112.58523 35958 ft 401 kts 246°
2026-04-10 15:03 36.94794 -112.65095 35992 ft 403 kts 246°
2026-04-10 15:03 36.92944 -112.71759 36017 ft 404 kts 246°
2026-04-10 15:04 36.91085 -112.78453 36058 ft 406 kts 246°
2026-04-10 15:04 36.89221 -112.85131 36077 ft 407 kts 246°
2026-04-10 15:05 36.86406 -112.95153 36108 ft 408 kts 246°
2026-04-10 15:05 36.84519 -113.01846 36101 ft 408 kts 246°
2026-04-10 15:06 36.82633 -113.08534 36076 ft 408 kts 246°
2026-04-10 15:06 36.80729 -113.15272 35340 ft 417 kts 246°
2026-04-10 15:07 36.79768 -113.18673 34645 ft 416 kts 246°
2026-04-10 15:07 36.78805 -113.22078 33906 ft 416 kts 246°
2026-04-10 15:07 36.77839 -113.25488 33045 ft 417 kts 246°
2026-04-10 15:07 36.76876 -113.28888 32469 ft 412 kts 246°
2026-04-10 15:08 36.75926 -113.32240 31869 ft 408 kts 246°
2026-04-10 15:08 36.74984 -113.35556 31336 ft 403 kts 246°
2026-04-10 15:08 36.74052 -113.38832 30799 ft 399 kts 246°
2026-04-10 15:08 36.73128 -113.42069 30298 ft 395 kts 246°
2026-04-10 15:09 36.72180 -113.45385 29764 ft 391 kts 246°
2026-04-10 15:09 36.71276 -113.48549 29195 ft 387 kts 246°
2026-04-10 15:09 36.70724 -113.50480 28857 ft 384 kts 246°
2026-04-10 15:09 36.69681 -113.54135 28239 ft 379 kts 246°
2026-04-10 15:10 36.68801 -113.57218 27707 ft 375 kts 246°
2026-04-10 15:10 36.67940 -113.60234 27190 ft 371 kts 246°
2026-04-10 15:10 36.67063 -113.63300 26657 ft 367 kts 246°
2026-04-10 15:10 36.66207 -113.66291 26155 ft 364 kts 246°
2026-04-10 15:11 36.65360 -113.69248 25655 ft 362 kts 246°
2026-04-10 15:11 36.64515 -113.72196 25159 ft 359 kts 246°
2026-04-10 15:11 36.63686 -113.75086 24669 ft 357 kts 246°
2026-04-10 15:11 36.62844 -113.78019 24163 ft 356 kts 246°
2026-04-10 15:12 36.62019 -113.80892 23657 ft 355 kts 246°
2026-04-10 15:12 36.61178 -113.83816 23093 ft 354 kts 246°
2026-04-10 15:12 36.60345 -113.86710 22488 ft 354 kts 246°
2026-04-10 15:12 36.59516 -113.89576 21998 ft 350 kts 246°
2026-04-10 15:13 36.58587 -113.92339 21487 ft 343 kts 236°
2026-04-10 15:13 36.57216 -113.94699 21021 ft 338 kts 230°
2026-04-10 15:13 36.55775 -113.96976 20529 ft 336 kts 229°
2026-04-10 15:13 36.54316 -113.99265 20038 ft 334 kts 229°
2026-04-10 15:14 36.52853 -114.01575 19539 ft 331 kts 230°
2026-04-10 15:14 36.51460 -114.03792 19058 ft 330 kts 230°
2026-04-10 15:14 36.50033 -114.06074 18578 ft 328 kts 230°
2026-04-10 15:14 36.48638 -114.08312 18088 ft 328 kts 230°
2026-04-10 15:15 36.47245 -114.10550 17549 ft 326 kts 230°
2026-04-10 15:15 36.45879 -114.12748 17043 ft 324 kts 230°
2026-04-10 15:15 36.44508 -114.14955 16596 ft 321 kts 230°
2026-04-10 15:15 36.43153 -114.17135 16219 ft 315 kts 230°
2026-04-10 15:16 36.41841 -114.19242 16097 ft 302 kts 230°
2026-04-10 15:16 36.40390 -114.21565 15945 ft 289 kts 230°
2026-04-10 15:16 36.39355 -114.23221 15779 ft 282 kts 230°
2026-04-10 15:16 36.38134 -114.25141 15437 ft 285 kts 229°
2026-04-10 15:17 36.36890 -114.27085 15088 ft 290 kts 230°
2026-04-10 15:17 36.35629 -114.29061 14740 ft 295 kts 230°
2026-04-10 15:17 36.34344 -114.31074 14377 ft 297 kts 230°
2026-04-10 15:17 36.33072 -114.33069 14007 ft 294 kts 230°
2026-04-10 15:18 36.31809 -114.35051 13647 ft 291 kts 230°
2026-04-10 15:18 36.30557 -114.37015 13245 ft 289 kts 229°
2026-04-10 15:18 36.29315 -114.38963 12871 ft 286 kts 230°
2026-04-10 15:18 36.28082 -114.40893 12509 ft 284 kts 229°
2026-04-10 15:19 36.26874 -114.42779 12144 ft 281 kts 229°
2026-04-10 15:19 36.25665 -114.44664 11803 ft 279 kts 229°
2026-04-10 15:19 36.24458 -114.46534 11458 ft 277 kts 229°
2026-04-10 15:19 36.23253 -114.48383 11111 ft 275 kts 229°
2026-04-10 15:20 36.22056 -114.50216 10793 ft 273 kts 229°
2026-04-10 15:20 36.20859 -114.52049 10445 ft 275 kts 229°
2026-04-10 15:20 36.19655 -114.53889 10119 ft 275 kts 228°
2026-04-10 15:20 36.18455 -114.55729 9781 ft 274 kts 228°
2026-04-10 15:21 36.17262 -114.57555 9416 ft 271 kts 228°
2026-04-10 15:21 36.16089 -114.59347 9086 ft 265 kts 229°
2026-04-10 15:21 36.14947 -114.61096 8859 ft 257 kts 229°
2026-04-10 15:21 36.13826 -114.62808 8731 ft 256 kts 229°
2026-04-10 15:22 36.12699 -114.64529 8619 ft 258 kts 228°
2026-04-10 15:22 36.11558 -114.66270 8467 ft 262 kts 228°
2026-04-10 15:22 36.10424 -114.68003 8327 ft 255 kts 228°
2026-04-10 15:22 36.09324 -114.69678 8194 ft 246 kts 228°
2026-04-10 15:23 36.08264 -114.71291 8047 ft 237 kts 228°
2026-04-10 15:23 36.07467 -114.73042 7873 ft 235 kts 251°
2026-04-10 15:23 36.07265 -114.75040 7660 ft 234 kts 264°
2026-04-10 15:23 36.07269 -114.77049 7391 ft 234 kts 267°
2026-04-10 15:24 36.07315 -114.79031 7125 ft 233 kts 268°
2026-04-10 15:24 36.07348 -114.81036 6856 ft 234 kts 267°
2026-04-10 15:24 36.07365 -114.83051 6562 ft 235 kts 267°
2026-04-10 15:24 36.07393 -114.85064 6314 ft 233 kts 268°
2026-04-10 15:25 36.07413 -114.87067 6021 ft 233 kts 267°
2026-04-10 15:25 36.07415 -114.89062 5724 ft 231 kts 266°
2026-04-10 15:25 36.07409 -114.91030 5420 ft 225 kts 266°
2026-04-10 15:25 36.07403 -114.92928 5126 ft 215 kts 266°
2026-04-10 15:26 36.07398 -114.94700 4846 ft 198 kts 266°
2026-04-10 15:26 36.07393 -114.96339 4588 ft 186 kts 266°
2026-04-10 15:26 36.07388 -114.97928 4367 ft 184 kts 266°
2026-04-10 15:26 36.07384 -114.99535 4140 ft 189 kts 265°
2026-04-10 15:27 36.07382 -115.01121 3887 ft 179 kts 266°
2026-04-10 15:27 36.07380 -115.02576 3674 ft 163 kts 266°
2026-04-10 15:27 36.07378 -115.03907 3476 ft 145 kts 265°
2026-04-10 15:27 36.07374 -115.05122 3319 ft 142 kts 265°
2026-04-10 15:28 36.07371 -115.06371 3128 ft 142 kts 263°
2026-04-10 15:28 36.07367 -115.07570 2954 ft 144 kts 264°
2026-04-10 15:28 36.07370 -115.08839 2781 ft 151 kts 263°
2026-04-10 15:28 36.07366 -115.10149 2516 ft 149 kts 261°
2026-04-10 15:29 36.07366 -115.11422 2325 ft 147 kts 266°
2026-04-10 15:29 36.07370 -115.12658 2118 ft 145 kts 266°
2026-04-10 15:29 36.07363 -115.13851 2079 ft 128 kts 269°
2026-04-10 15:29 36.07366 -115.14700 2092 ft 70 kts 270°
2026-04-10 15:30 36.07369 -115.15170 2099 ft 49 kts 274°
2026-04-10 15:30 36.07452 -115.15471 2104 ft 32 kts 299°
2026-04-10 15:30 36.07563 -115.15651 2113 ft 22 kts 316°
2026-04-10 15:30 36.07670 -115.15784 2120 ft 21 kts 316°
2026-04-10 15:31 36.07791 -115.15826 2112 ft 19 kts
2026-04-10 15:31 36.07874 -115.15772 2109 ft 14 kts 71°
2026-04-10 15:31 36.07879 -115.15656 2103 ft 14 kts 92°
2026-04-10 15:31 36.07878 -115.15542 2100 ft 13 kts 89°
2026-04-10 15:32 36.07880 -115.15430 2099 ft 13 kts 90°
2026-04-10 15:32 36.07877 -115.15322 2098 ft 13 kts 91°
2026-04-10 15:32 36.07878 -115.15211 2098 ft 13 kts 90°
2026-04-10 15:32 36.07879 -115.15096 2097 ft 14 kts 91°
2026-04-10 15:33 36.07874 -115.14974 2097 ft 14 kts 94°
2026-04-10 15:33 36.07872 -115.14854 2097 ft 14 kts 78°
2026-04-10 15:33 36.07938 -115.14834 2096 ft 6 kts 337°
2026-04-10 15:33 36.07976 -115.14836 2096 ft 6 kts 49°
2026-04-10 15:34 36.07995 -115.14789 2096 ft 6 kts 64°
2026-04-10 15:34 36.08016 -115.14747 2096 ft 6 kts 57°
2026-04-10 15:34 36.08027 -115.14726 2096 ft 0 kts 57°